HST
1 20580U 90037B   24120.91044929  .00006015  00000-0  28636-3 0  9991
2 20580  28.4688 308.4188 0001987 227.6249 132.4175 15.17039859669958
ISS (ZARYA)
1 25544U 98067A   24121.34418611  .00020521  00000-0  35672-3 0  9994
2 25544  51.6389 192.6226 0003613 123.7838 355.9101 15.50773661451125
CXO
1 25867U 99040B   24122.90844459  .00000974  00000-0  00000-0 0  9994
2 25867  40.1204 158.4290 8930870 293.0739   0.0973  0.37809658 14390